{"data":{"norad_id":57612,"epoch":"2026-09-20T04:03:11.350368Z","epoch_age_seconds":156261,"freshness":"FRESH","line1":"1 57612U 23119L   26263.16888137  .00000578  00000+0  30537-4 0  9999","line2":"2 57612  43.0056  62.9017 0001483 265.6523  94.4160 15.27579757172831","mean_motion":15.27579757,"eccentricity":0.0001483,"inclination_deg":43.0056,"raan_deg":62.9017,"arg_perigee_deg":265.6523,"mean_anomaly_deg":94.416,"bstar":3.0537e-5,"rev_number":17283,"period_min":94.26676370915,"perigee_km":482.03230966322,"apogee_km":484.06733767512,"semimajor_km":6861.1868236692,"source":"CELESTRAK","updated_at":"2026-09-21T09:00:33.642008Z"}}